Location: ??
(35.1714°N, 128.2806°E)
Time: 14:45:14
(UTC+00:00)

Cosmos 1655 Rocket - Pass Details

Date: 29 October 2020
Orbit: 971 x 1006 km, 82.9° (Epoch: 30 November)

Event Time Altitude Azimuth Distance (km) Brightness Sun altitude
Rises 21:11:57 0° 191° (S) 3,666 7.0 -7.6°
Reaches altitude 10° 21:14:27 10° 194° (SSW) 2,726 6.3 -7.1°
Maximum altitude 21:20:41 70° 277° (W) 1,047 4.0 -5.9°
Drops below altitude 10° 21:27:01 10° 1° (N) 2,766 6.3 -4.6°
Sets 21:29:35 0° 4° (N) 3,723 6.9 -4.1°
